Weather Roundup
Issued by NWS Chicago, IL

Home | Current Version | Previous Version | Text Only | Print | Product List | Glossary Off
Versions: 1 2 3 4 5 6 7 8 9 10 11 12 13 14 15 16 17 18 19 20 21 22 23 24 25 26 27 28 29 30 31 32 33 34 35 36 37 38 39 40 41 42 43 44 45 46 47 48 49 50

000
NZUS59 KLOT 241704
HRRLOT

CHICAGO AREA WEATHER ROUNDUP
NATIONAL WEATHER SERVICE CHICAGO/ROMEOVILLE IL
1200 PM CDT WED AUG 24 2016

NOTE: "FAIR" INDICATES FEW OR NO CLOUDS BELOW 12,000 FEET WITH NO
SIGNIFICANT WEATHER AND/OR OBSTRUCTIONS TO VISIBILITY.

* THESE STATIONS ARE NOT UNDER NWS QUALITY CONTROL. THEY ALSO MAY NOT
  REPORT WEATHER SUCH AS PRECIPITATION OR FOG.

ILZ005-006-012>014-019>023-241800-
NORTHEAST ILLINOIS

CITY           SKY/WX    TMP DP  RH WIND       PRES   REMARKS
OHARE          CLOUDY    76  73  91 S21G32    29.92F
MIDWAY         CLOUDY    76  72  87 S15       29.96F
AURORA         LGT RAIN  76  71  85 S15G25    29.95F
LANSING*       LGT RAIN  74  72  93 S9        29.99F
JOLIET*        LGT RAIN  74  73  96 CALM      29.97F
WAUKEGAN       CLOUDY    75  71  87 SW10      29.94F
DUPAGE AIRPORT CLOUDY    77  71  82 S20G28    29.94S
WHEELING       CLOUDY    75  72  90 S17G26    29.93F
KANKAKEE*      CLOUDY    74  73  96 S7        30.00F
MORRIS*        CLOUDY    75  73  92 S8        29.95F
LEWIS AIRPORT* CLOUDY    75  70  84 S14       29.97F
NORTHERLY ISL    N/A     73  69  87 S16         N/A
$$

WIZ051-052-058>065-066-070>072-241800-
SOUTHEAST WISCONSIN

CITY           SKY/WX    TMP DP  RH WIND       PRES   REMARKS
MILWAUKEE      CLOUDY    78  68  71 SW15      29.93R HX  80
KENOSHA*       CLOUDY    76  71  85 SW7       29.95F
RACINE*        CLOUDY    77  70  79 S5        29.95F
BURLINGTON     CLOUDY    74  70  86 SW9       29.94S
WAUKESHA       PTSUNNY   73  66  78 S10G18    29.94F
$$

INZ001>003-010>013-019-020-241800-
NORTHWEST INDIANA

CITY           SKY/WX    TMP DP  RH WIND       PRES   REMARKS
GARY*          LGT RAIN  75  73  94 CALM      29.99F
MICHIGAN CITY* NOT AVBL
RENSSELAER*    NOT AVBL
VALPARAISO     HVY RAIN  72  70  93 S9        30.02F
$$

LMZ740>746-241800-
SOUTHERN LAKE MICHIGAN

STATION/POSITION TIME  SKY/WX   TEMP WIND        PRES    VSBY
                                AIR  DIR/SP/G
                 (UTC)          (F)  (DEG/KT/KT) (MB)    (MI)
HARRISON CRIB    1600            73  200/ 22/ 25   N/A
BURNHAM HARBOR   1700            74  180/ 13/ 15   N/A
CALUMET HARBOR   1600            73  210/  6/ 10 1015.7R
BURNS HARBOR     1606            74  190/ 13/ 21 1016.6F
MICHIGAN CITY    1600            73  150/ 12/ 15   N/A
$$

ABBREVIATIONS USED IN REMARKS
   TC - TEMPERATURE IN CELSIUS
  WCI - WIND CHILL INDEX
   HX - HEAT INDEX
  VSB - VISIBILITY
$$




USA.gov is the U.S. government's official web portal to all federal, state and local government web resources and services.